Content
SEND FEEDBACK

Daily
Averages
Monthly
Summary
Canada

STE. DOROTHEE, QUEBEC


Home > North America > Canada > Quebec
Elevation: 75 feet     Latitude: 45 31N     Longitude: 73 47W

WEATHER
 
SELECT A DAY
Number of Records: 198,177;   Date Range: 1/1/95 - 7/30/14
 
SHARE

PRINT THIS DATA

[ ← Previous Day ]
WEATHER ALMANAC - MAY 25, 2013
[ Next Day → ]
[ °C ]   °F
Weather ElementAverageHighLow
Temperature46.5 °F48.2 °F (1:00 am)44.6 °F (8:00 am)
Dewpoint39 °F42.8 °F (1:00 am)33.8 °F (4:00 am)
Humidity74.8 %93 % (9:00 pm)58 % (4:00 am)
Barometer30.08 in30.11 in (8:00 am)30.04 in (11:00 pm)
Wind Speed12.4 mph23 mph (12:00 pm)
Wind Gust28.8 mph (12:00 pm)
Weather ElementAverage
Visibility13.6 mi
Wind DirectionESE (111.4 °)

Weather ElementTotal
Precipitation---
Heating Degree Days18.6 (Base 65)
Averaged from 28 records on May 25, 2013
WEATHER CONDITIONS BREAKOUT
WIND DIRECTION BREAKOUT
WEATHER BY HOUR - MAY 25, 2013
[ °C ]   °F
Local TimeTemperatureDewpointHumidityBarometerVisibilityWind DirectionWind SpeedGust SpeedPrecipitationEventsConditions
1:00 AM48.2 °F42.8 °F82 %30.09 in15.0 miNW (320°)4.6 mphRainLight Rain
2:00 AM48.0 °F42.0 °F75 %30.07 in15.0 miNNE (30°)4.6 mphRainLight Rain
2:00 AM48.2 °F42.8 °F82 %30.07 in15.0 miNE (40°)5.8 mphOvercast
3:00 AM48.2 °F41.0 °F76 %30.07 in15.0 miNE (40°)5.8 mphOvercast
4:00 AM48.2 °F33.8 °F58 %30.07 in15.0 miNorth (360°)13.8 mph20.7 mphOvercast
5:00 AM48.2 °F33.8 °F58 %30.07 in15.0 miNorth (10°)11.5 mphOvercast
5:52 AM48.2 °F35.6 °F62 %30.08 in15.0 miNorth (10°)11.5 mph18.4 mphRainLight Rain Showers
6:00 AM46.4 °F35.6 °F66 %30.08 in15.0 miNorth (10°)11.5 mphRainLight Rain Showers
7:00 AM46.4 °F35.6 °F66 %30.09 in15.0 miNNE (30°)21.9 mphRainLight Rain Showers
8:00 AM45.0 °F36.0 °F61 %30.11 in15.0 miNNE (20°)16.1 mphRainLight Rain
8:00 AM44.6 °F35.6 °F71 %30.11 in15.0 miNNE (20°)17.3 mph24.2 mphRainLight Rain
9:00 AM46.4 °F37.4 °F71 %30.10 in15.0 miNorth (360°)10.4 mphRainLight Rain
10:00 AM48.2 °F37.4 °F66 %30.10 in15.0 miNorth (10°)13.8 mph21.9 mphRainLight Rain
11:00 AM48.2 °F37.4 °F66 %30.09 in15.0 miNorth (360°)10.4 mph17.3 mphRainLight Rain
12:00 PM48.2 °F35.6 °F62 %30.09 in15.0 miNNE (30°)23.0 mph28.8 mphRainLight Rain
1:00 PM46.4 °F39.2 °F76 %30.08 in15.0 miNNE (30°)13.8 mph19.6 mphRainLight Rain
2:00 PM47.0 °F40.0 °F70 %30.09 in15.0 miNorth (10°)13.8 mphRainLight Rain
2:00 PM46.4 °F41.0 °F81 %30.09 in15.0 miNorth (10°)11.5 mph27.6 mphRainLight Rain
3:00 PM46.4 °F37.4 °F71 %30.09 in12.0 miNNE (20°)20.7 mphRainLight Rain
4:00 PM44.6 °F39.2 °F81 %30.11 in10.0 miNNE (20°)18.4 mph27.6 mphRainLight Rain
5:00 PM44.6 °F41.0 °F87 %30.10 in10.0 miNorth (10°)18.4 mphRainLight Rain
6:00 PM44.6 °F41.0 °F87 %30.09 in10.0 miNorth (350°)11.5 mph20.7 mphRainLight Rain
7:00 PM44.6 °F41.0 °F87 %30.07 in15.0 miNorth (350°)11.5 mph20.7 mphRainLight Rain
8:00 PM46.0 °F41.0 °F77 %30.06 in12.0 miNorth9.2 mphRainLight Rain
8:00 PM46.4 °F41.0 °F81 %30.06 in12.0 miNorth (10°)9.2 mphRainLight Rain
9:00 PM44.6 °F42.8 °F93 %30.05 in12.0 miNW (310°)4.6 mphRainLight Rain
10:00 PM46.4 °F42.8 °F87 %30.05 in10.0 miNNW (340°)8.1 mphRainLight Rain
11:00 PM44.6 °F42.8 °F93 %30.04 in7.0 miNorth (10°)15.0 mphRainLight Rain
Hourly data recorded from CYUL, located miles away from Ste. Dorothee, Quebec







STORIES FROM OUR PARTNERS